Location: �bnet
(46.9957°N, 8.4908°E)
Time: 01:14:21
(UTC+00:00)

USA 290 - Pass Details

Date: 11 May 2021
Orbit: 400 x 415 km, 73.6° (Epoch: 12 May)

Event Time Altitude Azimuth Distance (km) Brightness Sun altitude
Rises 20:03:14 0° 328° (NNW) 2,350 7.8 -11.0°
Reaches altitude 10° 20:05:27 10° 316° (NW) 1,480 6.6 -11.3°
Maximum altitude 20:08:18 29° 255° (WSW) 783 4.0 -11.7°
Drops below altitude 10° 20:11:07 10° 193° (SSW) 1,460 4.7 -12.0°
Enters shadow 20:11:37 - 189° (S) 1,649 4.9 -12.1°
